[[{"header":{"parameterUnit":"m.s-1","parameterCategory":1,"la1":30.2991,"la2":30.254,"lo1":-89.0895,"lo2":-89.0444,"dy":0.0017,"dx":0.0017,"nx":28,"ny":28,"refTime":"2025-03-11T21:00:00:Z","depth":0,"parameterNumber":2,"parameterNumberName":"U-component_of_WINDS"},"data":[0,0,0,0,0,0,0,0,0,0,0,0,0,0,0,0,0,0,0,0,0,0,0,0,0,0,0,0,0,0,0,0,0,0,0,0,0,0,0,0,0,0,0,0,0,0,0,0,0,0,0,0,0,0,0,0,0,0,1.0258,1.0259,0,1.0321,1.0322,1.0322,1.0345,1.0344,1.0344,1.0344,1.0412,1.0414,1.0416,0,0,0,0,0,0,0,0,0,0,0,0,0,1.0161,1.0163,1.0258,1.0259,1.026,1.0321,1.0322,1.0323,1.0345,1.0344,1.0344,1.0344,1.0411,1.0414,1.0416,0,0,0,0,0,0,0,0,0,0,0,0,0,1.0212,1.0163,1.0258,1.0278,1.028,1.0321,1.0322,1.0323,1.0345,1.0344,1.0344,1.0344,1.0411,1.0413,1.0417,1.0443,0,0,1.0426,1.0427,0,0,0,0,0,0,0,0,1.0209,1.0215,1.0274,1.0277,1.0279,1.0325,1.0313,1.0363,1.0345,1.032,1.0344,1.0343,1.0383,1.0389,1.0401,1.0446,1.0449,1.0426,1.0428,1.0429,1.043,0,0,0,0,0,0,0,1.0205,1.0213,1.0283,1.0275,1.0278,1.0285,1.0292,1.0322,1.0353,1.0322,1.0324,1.0331,1.0385,1.0398,1.0403,1.045,1.0426,1.0429,1.0431,1.0432,1.052,1.0521,0,0,0,0,0,0,1.0198,1.0209,1.0281,1.0285,1.0242,1.0287,1.0295,1.031,1.0353,1.0359,1.0331,1.0332,1.0393,1.04,1.0406,1.044,1.0429,1.0432,1.0434,1.052,1.0521,1.0521,0,0,0,0,0,0,1.0196,1.0204,1.0279,1.0248,1.0258,1.0289,1.0307,1.0312,1.0325,1.036,1.0366,1.0339,1.0393,1.0401,1.0433,1.0442,1.0434,1.0436,1.0519,1.052,1.0521,1.0508,0,0,0,0,0,0,1.0193,1.0203,1.0212,1.0248,1.0259,1.0304,1.0307,1.0313,1.033,1.0332,1.0369,1.0375,1.0394,1.0429,1.0436,1.0447,1.0439,1.0519,1.052,1.0521,1.0508,1.0508,1.0508,0,0,0,0,0,1.0189,1.0207,1.0213,1.0221,1.0271,1.0304,1.0311,1.0332,1.0331,1.0341,1.0363,1.0373,1.044,1.0432,1.0441,1.0452,1.0518,1.0519,1.0521,1.0507,1.0508,1.0508,0,0,0,0,0,0,1.0172,1.0212,1.0219,1.0248,1.0272,1.0308,1.0321,1.0331,1.0358,1.0358,1.0383,1.0392,1.0422,1.044,1.043,1.048,1.048,1.0483,1.0467,1.0468,1.0468,1.0463,1.0441,0,0,0,0,0,1.0172,1.0194,1.0228,1.025,1.0262,1.029,1.0305,1.0318,1.0346,1.0356,1.0381,1.0408,1.0435,1.0452,1.0479,1.051,1.052,1.0523,1.0523,1.0523,1.0526,1.0545,1.0547,1.0525,1.0525,1.0525,0,0,1.0171,1.0196,1.0208,1.0248,1.0268,1.0292,1.0298,1.0323,1.0342,1.0361,1.0392,1.0411,1.0443,1.0475,1.049,1.0491,1.0534,1.0525,1.0525,1.0527,1.0546,1.0548,1.055,1.0526,1.0526,1.0526,0,0,1.0183,1.0203,1.0224,1.0245,1.0276,1.0294,1.0299,1.0333,1.0346,1.0378,1.0393,1.0416,1.0462,1.0485,1.0502,1.0523,1.0533,1.0531,1.0533,1.0551,1.0553,1.0555,1.0563,1.0565,1.0533,1.0533,1.0533,0,1.0178,1.0214,1.0234,1.0258,1.0276,1.0293,1.0316,1.0335,1.0374,1.0386,1.0386,1.0445,1.0468,1.0505,1.051,1.0524,1.0531,1.0527,1.0551,1.0553,1.0555,1.0563,1.0566,1.0533,1.0533,1.0533,1.0533,0,1.0207,1.0232,1.0246,1.0281,1.0301,1.0324,1.0349,1.0366,1.0379,1.0397,1.043,1.0458,1.0491,1.0501,1.0514,1.0541,1.0541,1.0546,1.0546,1.0556,1.0564,1.0567,1.0532,1.0532,1.0532,1.0532,0,0,1.0209,1.0256,1.0261,1.0278,1.0314,1.0334,1.0359,1.039,1.0405,1.0431,1.0454,1.0492,1.0497,1.0517,1.0532,1.0548,1.0564,1.0551,1.0553,1.0553,1.0597,1.0593,1.0596,1.0571,1.0572,1.0572,1.0594,0,1.0225,1.0269,1.0289,1.0324,1.0348,1.0365,1.0387,1.0412,1.0431,1.0455,1.0476,1.0503,1.0507,1.0519,1.0535,1.0558,1.0573,1.0557,1.0593,1.0594,1.0585,1.06,1.0596,1.0616,1.0598,1.0598,1.0598,0,1.025,1.0276,1.0313,1.0347,1.0358,1.0377,1.0408,1.043,1.0459,1.0472,1.0494,1.0509,1.0537,1.0535,1.0575,1.0564,1.058,1.0594,1.0595,1.06,1.0597,1.0606,1.0622,1.0625,1.0604,1.0603,1.0603,0,1.0248,1.0292,1.0321,1.0334,1.0375,1.0388,1.0406,1.0435,1.0453,1.048,1.0492,1.0523,1.054,1.0564,1.0588,1.0584,1.0626,1.0626,1.0638,1.0637,1.0646,1.0645,1.0666,1.0656,1.0656,1.0656,1.0655,0,1.0264,1.0287,1.032,1.0338,1.0364,1.0387,1.0413,1.0432,1.0458,1.048,1.0498,1.0519,1.0548,1.0573,1.0592,1.0623,1.063,1.0642,1.0647,1.0641,1.0639,1.0652,1.0651,1.0656,1.0656,1.0656,1.0656,0,1.0266,1.029,1.0322,1.0357,1.0367,1.0385,1.0416,1.0434,1.0454,1.0482,1.049,1.0521,1.0552,1.0577,1.0618,1.063,1.0663,1.0668,1.0652,1.0655,1.0665,1.0664,1.0695,1.0701,1.0686,1.0686,1.0687,0,1.0275,1.0293,1.033,1.0346,1.0363,1.0389,1.0407,1.0431,1.045,1.0485,1.05,1.0531,1.0558,1.0606,1.0633,1.0665,1.0671,1.068,1.0676,1.067,1.0672,1.0671,1.0673,1.068,1.068,1.068,1.068,0,1.0289,1.03,1.0325,1.0354,1.0376,1.04,1.0426,1.0438,1.0467,1.0487,1.0518,1.0539,1.058,1.0612,1.0646,1.0666,1.0678,1.0681,1.0686,1.068,1.067,1.0676,1.0653,1.0681,1.0681,1.0681,1.0681,1.0681,1.0295,1.0312,1.0341,1.0369,1.039,1.0414,1.0433,1.0455,1.048,1.0515,1.0528,1.056,1.0591,1.0638,1.0658,1.0684,1.0686,1.0692,1.0694,1.0695,1.0695,1.0666,1.0691,1.0691,1.0691,1.0691,1.0691,0,1.0309,1.0329,1.0355,1.0389,1.0412,1.0421,1.0449,1.0468,1.0495,1.0522,1.0548,1.0584,1.0615,1.0645,1.0678,1.0693,1.07,1.0701,1.07,1.0705,1.0691,1.0684,1.0695,1.0695,1.0695,1.0695,1.0695,1.0695,1.032,1.0349,1.0363,1.0404,1.0424,1.0455,1.047,1.0493,1.0514,1.0554,1.0579,1.0598,1.0626,1.0662,1.0691,1.0699,1.071,1.071,1.072,1.0706,1.0706,1.0705,1.0698,1.0712,1.0712,1.0731,1.0731,1.0732]},{"header":{"parameterUnit":"m.s-1","parameterCategory":1,"la1":30.2991,"la2":30.254,"lo1":-89.0895,"lo2":-89.0444,"dy":0.0017,"dx":0.0017,"nx":28,"ny":28,"refTime":"2025-03-11T21:00:00:Z","depth":0,"parameterNumber":3,"parameterNumberName":"V-component_of_WINDS"},"data":[0,0,0,0,0,0,0,0,0,0,0,0,0,0,0,0,0,0,0,0,0,0,0,0,0,0,0,0,0,0,0,0,0,0,0,0,0,0,0,0,0,0,0,0,0,0,0,0,0,0,0,0,0,0,0,0,0,0,3.8137,3.8137,0,3.8111,3.8111,3.811,3.8127,3.8128,3.8129,3.8129,3.8096,3.8094,3.8093,0,0,0,0,0,0,0,0,0,0,0,0,0,3.8196,3.8195,3.8137,3.8137,3.8137,3.8111,3.8111,3.811,3.8127,3.8128,3.8129,3.813,3.8096,3.8094,3.8092,0,0,0,0,0,0,0,0,0,0,0,0,0,3.817,3.8194,3.8137,3.8142,3.8142,3.8111,3.8111,3.811,3.8127,3.8128,3.8129,3.813,3.8097,3.8095,3.8092,3.8053,0,0,3.8085,3.8084,0,0,0,0,0,0,0,0,3.8171,3.8168,3.8142,3.8142,3.8142,3.8124,3.8119,3.8091,3.8126,3.8132,3.8129,3.8131,3.8104,3.8101,3.8093,3.8051,3.805,3.8084,3.8083,3.8082,3.8081,0,0,0,0,0,0,0,3.8173,3.8169,3.8127,3.8141,3.8141,3.8143,3.8141,3.8114,3.8111,3.8132,3.8133,3.813,3.8104,3.8095,3.8092,3.8049,3.8085,3.8082,3.8081,3.808,3.7974,3.7972,0,0,0,0,0,0,3.8175,3.817,3.8127,3.8126,3.816,3.8141,3.8139,3.8128,3.8112,3.8111,3.8129,3.8131,3.8099,3.8095,3.8091,3.8044,3.8082,3.808,3.8078,3.7975,3.7973,3.7972,0,0,0,0,0,0,3.8176,3.8171,3.8128,3.8148,3.8143,3.8139,3.8127,3.8127,3.8119,3.811,3.8109,3.8121,3.81,3.8095,3.8063,3.8043,3.8079,3.8076,3.7977,3.7974,3.7973,3.7949,0,0,0,0,0,0,3.8178,3.8172,3.8158,3.8148,3.8142,3.8102,3.8126,3.8126,3.8115,3.8117,3.8102,3.8101,3.81,3.8066,3.806,3.804,3.8074,3.7978,3.7976,3.7973,3.7951,3.7946,3.7942,0,0,0,0,0,3.818,3.8151,3.8157,3.8152,3.8125,3.8101,3.8097,3.81,3.8113,3.8099,3.8093,3.8101,3.8046,3.8063,3.8056,3.8035,3.798,3.7976,3.7973,3.7953,3.7947,3.7942,0,0,0,0,0,0,3.8156,3.815,3.8157,3.8124,3.8113,3.8104,3.8086,3.8093,3.8076,3.8079,3.808,3.8077,3.8043,3.8036,3.8055,3.7996,3.8015,3.801,3.8002,3.7996,3.7991,3.7993,3.8072,0,0,0,0,0,3.8148,3.8131,3.8125,3.8097,3.8091,3.8089,3.8079,3.8082,3.807,3.8065,3.8057,3.8043,3.8023,3.8009,3.799,3.7951,3.7947,3.7933,3.7928,3.7924,3.792,3.7898,3.7891,3.7962,3.7962,3.7962,0,0,3.8129,3.8123,3.8112,3.8092,3.8084,3.8064,3.8085,3.8064,3.8048,3.806,3.803,3.8024,3.8009,3.7973,3.7957,3.7966,3.79,3.792,3.7917,3.7915,3.7894,3.7887,3.7881,3.796,3.796,3.7961,0,0,3.8084,3.8079,3.8055,3.8047,3.8036,3.8035,3.8029,3.8019,3.8016,3.7986,3.7995,3.7976,3.7941,3.793,3.7919,3.7871,3.7877,3.7865,3.7839,3.7818,3.7812,3.7807,3.7789,3.7783,3.7861,3.7861,3.7861,0,3.8062,3.8035,3.8041,3.8019,3.8009,3.8022,3.7996,3.7987,3.7969,3.7961,3.7972,3.7929,3.792,3.7881,3.787,3.7861,3.7853,3.7866,3.7813,3.7808,3.7804,3.7786,3.778,3.7859,3.7859,3.786,3.786,0,3.8007,3.7988,3.7969,3.7954,3.7942,3.7918,3.7919,3.7906,3.791,3.7907,3.7876,3.7866,3.7844,3.7836,3.7838,3.7797,3.7803,3.7814,3.7832,3.7795,3.7779,3.7772,3.7857,3.7858,3.7858,3.7858,0,0,3.7945,3.7935,3.7928,3.7921,3.791,3.7894,3.787,3.7852,3.784,3.7827,3.7806,3.7777,3.7787,3.7775,3.7777,3.7758,3.772,3.7771,3.777,3.7761,3.7672,3.7664,3.7656,3.7725,3.7723,3.7722,3.7673,0,3.7899,3.786,3.7865,3.7827,3.7809,3.7821,3.78,3.7789,3.7787,3.7769,3.7765,3.7744,3.7759,3.7752,3.7735,3.7728,3.7702,3.7732,3.7703,3.7701,3.7705,3.7648,3.7639,3.7593,3.7667,3.7666,3.7665,0,3.784,3.7828,3.7789,3.7781,3.7773,3.7754,3.7738,3.7722,3.771,3.7709,3.7696,3.7701,3.7675,3.7696,3.7659,3.768,3.7668,3.7663,3.7661,3.7657,3.768,3.7641,3.7579,3.7571,3.7655,3.7656,3.7657,0,3.7798,3.7772,3.7745,3.7738,3.7729,3.7715,3.771,3.7699,3.7688,3.7673,3.7665,3.7647,3.7636,3.762,3.7619,3.7635,3.7581,3.7602,3.7578,3.7578,3.7565,3.7566,3.7499,3.756,3.756,3.756,3.756,0,3.7746,3.7721,3.7726,3.7709,3.7681,3.7686,3.7657,3.7653,3.7644,3.7625,3.7634,3.7616,3.7616,3.7597,3.7596,3.7565,3.756,3.7557,3.7557,3.7556,3.7556,3.7547,3.755,3.7558,3.7559,3.7559,3.7559,0,3.7694,3.7696,3.7667,3.7661,3.7659,3.7638,3.7632,3.7615,3.7613,3.7589,3.7584,3.758,3.7558,3.7556,3.753,3.7529,3.7491,3.7495,3.7496,3.7496,3.7472,3.7474,3.7396,3.7385,3.7454,3.7453,3.7453,0,3.7659,3.7641,3.7633,3.7623,3.7617,3.76,3.7589,3.7593,3.7581,3.7566,3.7551,3.753,3.7514,3.7477,3.7471,3.745,3.7453,3.7427,3.745,3.7449,3.7451,3.7452,3.7449,3.7422,3.7421,3.7421,3.742,0,3.7598,3.7601,3.7586,3.7572,3.7559,3.7547,3.7536,3.7526,3.7529,3.7515,3.7494,3.7481,3.7455,3.7434,3.7414,3.7406,3.7413,3.7413,3.7406,3.7404,3.7406,3.7404,3.7483,3.7415,3.7415,3.7416,3.7416,3.7416,3.7553,3.7537,3.753,3.7513,3.7506,3.7495,3.748,3.7477,3.746,3.7441,3.7444,3.742,3.7408,3.7383,3.7374,3.7354,3.7362,3.7352,3.7349,3.7347,3.7344,3.741,3.735,3.735,3.735,3.735,3.735,0,3.7492,3.7488,3.7473,3.7458,3.7445,3.7455,3.7444,3.7431,3.741,3.74,3.7384,3.7359,3.7339,3.7332,3.7311,3.7296,3.7299,3.7291,3.7291,3.7289,3.7338,3.7346,3.7289,3.7289,3.7289,3.7289,3.7289,3.7289,3.7458,3.7431,3.7433,3.7402,3.7398,3.7377,3.7369,3.7359,3.7351,3.7324,3.7308,3.7304,3.7295,3.7274,3.7255,3.7253,3.7244,3.7235,3.7234,3.7279,3.7286,3.7291,3.7299,3.7233,3.7233,3.7187,3.7186,3.7186]}]]